SCP
0 0 0 0 0 0 0 0 0 0 0 0 0 0 0 0 0 0 0 0 0 0
0 0 0 0 0 0 0 0 0 0 0 0 0 0 0 0 0 0 0 0 0 0
0 0 0 0 0 0 0 0 0 0 0 0 0 0 0 0 0 0 0 0 0 0
0 0 0 0 0 0 0 0 0 0 0 0 0 0 0 0 0 0 0 0 0 0
0 0 0 0 0 0 0 0 0 0 0 0 0 0 0 0 0 0 0 0 0 0
0 0 0 0 0 0 0 0 0 0 0 0 0 0 0 0 0 0 0 0 0 0
0 0 0 0 0 0 0 0 0 0 0 0 0 0 0 0 0 0 0 0 0 0
0 0 0 0 0 0 0 0 0 0 0 0 0 0 0 0 0 0 0 0 0 0
0 0 0 0 0 0 0 0 0 0 0 0 0 0 0 0 0 0 0 0 0 0
0 0 0 0 0 0 0 0 0 0 0 0 0 0 0 0 0 0 0 0 0 0
0 0 0 0 0 0 0 0 0 0 0 0 0 0 0 0 0 0 0 0 0 0
0 0 0 0 0 0 0 0 0 0 0 0 0 0 0 0 0 0 0 0 0 0
0 0 0 0 0 0 0 0 0 0 0 0 0 0 0 0 0 0 0 0 0 0
0 0 0 0 0 0 0 0 0 0 0 0 0 0 0 0 0 0 0 0 0 0
Wind_Speed_500mb
60 57 55 45 35 31 29 28 23 17 16 14 15 19 24 26 25 21 19 17 16 16
60 61 53 43 38 34 34 29 25 22 20 19 22 25 28 27 27 24 20 18 14 13
65 57 50 45 39 38 35 31 28 25 22 24 28 28 28 28 28 24 24 18 15 12
63 57 52 45 43 37 36 33 29 25 29 29 31 31 30 28 24 21 20 16 11 12
59 57 52 45 39 37 37 33 30 32 34 35 35 33 29 28 23 18 14 11 8 13
65 63 52 49 43 41 36 35 36 36 41 38 35 28 24 24 21 16 12 10 11 17
70 61 54 50 48 41 35 37 40 44 45 42 37 34 30 24 18 13 10 10 14 21
68 59 58 55 46 41 38 40 41 46 46 42 37 32 25 20 13 8 9 9 20 25
67 64 61 52 47 46 46 42 41 44 44 42 35 29 23 17 14 8 6 12 21 24
64 63 61 52 52 52 49 46 45 44 42 38 34 28 21 18 15 12 5 14 23 25
71 68 60 58 57 53 49 47 44 43 41 40 35 28 22 18 10 7 3 14 23 23
74 73 62 61 58 54 52 45 41 42 43 40 37 30 24 16 9 7 2 15 19 18
74 66 64 63 65 62 47 43 47 47 43 39 34 28 24 16 10 7 3 12 15 15
68 64 68 70 64 53 46 50 49 48 43 37 32 30 20 17 12 5 5 12 13 13
Wind_Direction_500mb
200 200 199 203 196 193 187 181 175 181 178 175 163 154 144 144 154 144 122 121 111 85
198 194 193 193 193 187 181 179 177 180 176 168 151 146 144 143 147 144 126 119 101 83
187 191 188 191 184 177 175 176 177 176 165 153 148 149 145 141 137 134 120 108 95 77
185 189 186 183 178 173 174 174 172 167 159 151 146 146 151 145 137 127 116 108 87 45
186 183 180 178 174 168 173 165 163 161 159 156 151 148 151 140 133 129 124 106 50 24
178 179 177 178 174 174 169 157 154 155 158 156 156 151 150 141 142 132 112 73 31 10
173 173 178 179 172 168 164 157 151 159 161 162 162 158 150 149 139 130 95 52 11 360
171 174 176 171 167 163 163 163 160 161 163 165 165 161 160 148 136 120 95 49 12 8
166 168 172 170 164 167 168 168 164 166 171 166 164 162 161 149 143 127 76 31 21 10
171 171 171 166 169 172 169 171 174 175 179 173 170 161 160 153 159 140 72 25 17 7
175 172 168 167 172 172 174 176 180 179 182 176 171 164 172 170 163 134 48 15 13 10
171 172 168 171 173 173 174 171 169 166 169 170 172 167 179 181 169 160 21 16 17 23
176 174 172 175 176 175 175 169 163 162 163 166 171 166 168 188 190 180 48 32 39 41
177 175 172 174 180 176 175 162 158 163 160 165 171 172 182 190 188 198 54 53 52 58
Wind_Speed_850mb
60 57 55 45 35 31 29 28 23 17 16 14 15 19 24 26 25 21 19 17 16 16
60 61 53 43 38 34 34 29 25 22 20 19 22 25 28 27 27 24 20 18 14 13
65 57 50 45 39 38 35 31 28 25 22 24 28 28 28 28 28 24 24 18 15 12
63 57 52 45 43 37 36 33 29 25 29 29 31 31 30 28 24 21 20 16 11 12
59 57 52 45 39 37 37 33 30 32 34 35 35 33 29 28 23 18 14 11 8 13
65 63 52 49 43 41 36 35 36 36 41 38 35 28 24 24 21 16 12 10 11 17
70 61 54 50 48 41 35 37 40 44 45 42 37 34 30 24 18 13 10 10 14 21
68 59 58 55 46 41 38 40 41 46 46 42 37 32 25 20 13 8 9 9 20 25
67 64 61 52 47 46 46 42 41 44 44 42 35 29 23 17 14 8 6 12 21 24
64 63 61 52 52 52 49 46 45 44 42 38 34 28 21 18 15 12 5 14 23 25
71 68 60 58 57 53 49 47 44 43 41 40 35 28 22 18 10 7 3 14 23 23
74 73 62 61 58 54 52 45 41 42 43 40 37 30 24 16 9 7 2 15 19 18
74 66 64 63 65 62 47 43 47 47 43 39 34 28 24 16 10 7 3 12 15 15
68 64 68 70 64 53 46 50 49 48 43 37 32 30 20 17 12 5 5 12 13 13
Wind_Direction_850mb
200 200 199 203 196 193 187 181 175 181 178 175 163 154 144 144 154 144 122 121 111 85
198 194 193 193 193 187 181 179 177 180 176 168 151 146 144 143 147 144 126 119 101 83
187 191 188 191 184 177 175 176 177 176 165 153 148 149 145 141 137 134 120 108 95 77
185 189 186 183 178 173 174 174 172 167 159 151 146 146 151 145 137 127 116 108 87 45
186 183 180 178 174 168 173 165 163 161 159 156 151 148 151 140 133 129 124 106 50 24
178 179 177 178 174 174 169 157 154 155 158 156 156 151 150 141 142 132 112 73 31 10
173 173 178 179 172 168 164 157 151 159 161 162 162 158 150 149 139 130 95 52 11 360
171 174 176 171 167 163 163 163 160 161 163 165 165 161 160 148 136 120 95 49 12 8
166 168 172 170 164 167 168 168 164 166 171 166 164 162 161 149 143 127 76 31 21 10
171 171 171 166 169 172 169 171 174 175 179 173 170 161 160 153 159 140 72 25 17 7
175 172 168 167 172 172 174 176 180 179 182 176 171 164 172 170 163 134 48 15 13 10
171 172 168 171 173 173 174 171 169 166 169 170 172 167 179 181 169 160 21 16 17 23
176 174 172 175 176 175 175 169 163 162 163 166 171 166 168 188 190 180 48 32 39 41
177 175 172 174 180 176 175 162 158 163 160 165 171 172 182 190 188 198 54 53 52 58